ECMWFFLT1_250_spd_204.txt.gz
Wind_Speed
99 101 103 102 101 100 98 95 91 89 88 87 86 86 86 86 84 83 81 79 77 75 71 67 64 59 55 51 47 44 40 37 36 38 38 35 32 32 36 39 40 37 33 31 30 28 27 28 25 21 20 22 27 30 29 25 25 27 27 26 24 22 22
97 99 101 101 101 101 99 98 95 93 92 91 90 89 88 87 87 85 82 81 79 76 74 70 66 61 57 54 51 50 46 41 39 40 39 37 33 32 34 37 41 41 37 33 31 29 29 29 28 25 24 25 27 30 28 24 24 27 27 26 24 22 22
95 97 99 100 100 100 100 100 99 97 96 95 94 93 91 89 88 86 84 82 81 79 77 74 71 66 62 57 52 50 50 47 43 41 41 39 35 34 34 34 38 41 38 34 32 30 29 29 29 27 25 26 27 29 28 25 22 24 26 26 24 23 25
91 93 96 97 98 99 100 101 102 101 99 98 96 96 95 93 90 88 84 82 82 82 80 78 75 71 68 64 57 52 51 52 49 45 45 43 38 36 35 33 36 39 38 37 34 31 30 29 28 27 26 26 26 27 29 28 23 22 24 25 25 26 26
85 87 89 91 93 95 98 101 103 104 103 101 100 99 98 96 93 90 87 83 83 84 82 80 78 75 71 67 64 59 55 53 51 49 47 45 41 39 36 32 34 37 37 37 35 32 31 30 28 27 25 25 26 27 29 31 29 25 24 25 27 27 25
77 79 80 82 86 89 92 95 98 101 102 102 102 102 102 99 96 94 91 88 85 83 84 82 80 78 73 69 67 64 60 56 51 49 49 47 44 43 37 31 33 35 34 35 35 33 32 31 30 28 26 26 27 27 28 31 33 31 29 29 29 28 26
68 69 71 74 77 80 83 85 88 90 92 93 95 98 101 100 98 95 92 90 87 84 82 82 81 78 74 72 70 65 61 59 55 52 52 49 47 46 40 34 34 34 33 33 33 33 32 33 32 29 28 27 27 29 31 31 33 34 33 31 29 29 28
59 60 62 65 67 70 73 75 77 79 81 83 85 88 92 93 92 90 89 89 89 85 82 82 84 81 76 75 73 69 64 63 61 60 57 51 48 48 43 37 35 36 35 33 33 34 34 34 35 32 30 30 30 32 33 32 32 33 33 30 28 29 30
50 51 53 55 57 60 63 66 68 71 73 74 75 76 78 82 83 82 83 86 88 85 82 84 86 85 82 78 74 71 67 65 65 65 63 56 51 50 47 40 39 39 38 35 35 35 34 35 37 36 35 35 34 34 35 34 33 31 30 30 29 30 32
43 43 45 47 48 50 53 56 58 62 65 67 67 64 63 68 75 76 75 80 85 85 83 84 85 85 86 84 78 73 70 68 68 67 66 62 57 54 49 44 42 42 40 38 37 38 37 36 38 40 40 39 37 35 35 34 31 29 30 32 33 33 34
37 38 39 41 42 42 44 47 49 52 56 59 60 59 57 57 62 68 70 74 82 85 84 85 84 84 86 87 82 77 74 72 71 69 66 64 61 56 51 47 47 47 45 41 40 41 40 39 39 42 42 41 40 39 36 33 31 32 33 35 37 35 33
33 33 34 36 36 36 37 39 40 42 46 51 53 56 57 54 52 59 65 68 74 79 82 86 86 83 83 85 84 83 80 76 75 73 68 62 59 57 53 51 50 51 49 45 43 43 43 42 42 43 43 43 42 40 37 34 34 37 37 37 39 36 33
28 28 29 30 31 31 32 32 33 34 37 42 47 50 53 53 51 53 59 62 66 71 76 82 86 84 82 82 82 84 85 81 79 78 73 65 60 59 58 55 53 53 52 48 45 46 46 45 44 44 45 45 43 41 39 37 37 40 39 39 40 38 35
24 24 24 25 26 26 27 27 28 29 30 34 40 44 47 50 52 53 56 61 64 67 70 76 83 84 84 82 81 82 83 82 82 82 80 74 68 65 62 57 55 55 54 50 47 48 49 48 46 46 45 44 44 44 42 39 39 41 42 41 40 40 39
22 22 21 22 22 22 23 24 24 25 26 28 33 39 43 48 52 54 58 63 65 65 68 73 79 83 84 83 82 83 82 81 82 83 82 80 76 72 68 62 59 58 56 54 52 53 52 50 49 49 48 46 47 48 45 42 40 40 43 44 45 47 46
22 21 21 21 21 21 20 21 22 23 24 26 29 35 40 45 50 53 57 61 62 62 65 69 75 80 82 81 81 83 84 82 81 83 83 81 79 77 73 68 64 62 61 59 58 58 56 53 52 52 52 49 50 51 47 43 40 39 42 46 48 50 49
22 21 21 22 22 22 21 21 21 22 23 25 27 31 37 42 47 51 55 58 59 59 61 65 71 76 78 80 80 81 84 84 82 82 83 82 80 79 77 73 68 66 65 63 62 61 59 57 56 55 55 53 53 53 48 44 43 41 43 49 51 50 48
22 22 22 22 22 22 22 22 22 23 24 26 27 29 33 39 44 48 52 56 58 59 59 61 66 74 76 77 79 80 82 85 84 82 84 84 82 80 79 77 73 70 68 66 65 64 62 61 59 58 57 56 58 56 49 47 48 45 45 49 53 52 49
22 22 22 22 22 22 22 23 23 24 26 27 28 29 32 36 41 46 50 53 57 61 63 61 61 69 75 75 76 79 81 85 85 84 84 84 83 82 81 79 77 74 71 69 67 66 65 65 64 62 60 60 61 60 54 50 51 50 48 50 54 56 54
21 22 23 23 23 23 23 23 24 24 26 28 29 30 32 34 38 43 47 51 54 58 63 64 61 63 70 74 75 77 80 84 86 85 86 85 84 84 83 81 80 78 75 73 71 68 67 68 68 66 64 63 64 64 59 53 52 53 52 53 56 57 57
22 23 23 24 24 24 24 24 24 24 25 27 29 30 31 33 35 39 43 48 51 54 58 62 62 62 66 71 74 76 80 84 86 86 87 87 86 86 85 82 82 82 80 78 76 72 69 69 71 70 68 67 67 67 65 59 55 56 56 57 59 59 57
21 21 22 23 23 24 24 24 25 25 25 26 28 29 31 32 34 36 39 42 47 51 54 57 61 62 64 68 71 74 78 82 86 87 88 88 88 88 87 85 84 84 84 83 81 78 73 71 73 73 72 72 70 70 70 66 60 58 59 61 62 62 60
17 18 19 19 20 20 21 22 23 24 26 26 27 28 30 31 33 34 36 39 42 46 50 54 57 60 63 65 68 71 75 80 85 87 88 89 89 90 90 89 87 86 86 86 85 83 78 74 75 76 76 76 75 73 74 73 67 62 61 63 65 65 64
13 14 14 14 15 15 16 17 19 20 22 24 26 27 28 30 32 33 34 36 39 41 45 50 53 57 61 63 66 69 73 77 83 86 89 90 91 91 92 92 92 90 88 87 87 87 84 80 78 79 79 79 78 77 78 78 75 70 65 64 67 68 69
11 11 12 11 11 12 13 13 15 16 17 19 21 24 26 28 30 31 33 35 37 39 41 45 49 53 57 61 65 68 71 76 80 85 88 90 91 92 93 94 96 96 93 90 89 89 89 86 83 82 82 82 81 80 80 81 82 78 72 67 67 69 70
12 12 12 11 11 11 12 12 13 14 15 15 17 18 21 24 27 30 31 33 35 37 39 42 45 49 53 58 62 66 70 74 79 83 87 90 92 93 94 95 98 100 100 96 93 92 92 91 89 87 86 85 85 83 81 82 84 85 81 75 71 70 71
15 14 14 14 14 14 14 14 14 15 15 15 15 15 17 19 22 26 29 31 33 35 37 40 42 45 49 53 58 63 68 72 76 81 85 89 93 94 95 96 98 101 104 103 101 99 97 95 94 92 91 90 90 89 86 84 86 88 87 83 78 76 75
17 17 17 17 16 16 16 16 17 17 17 17 17 17 16 17 18 21 24 28 31 34 36 38 40 43 46 49 53 58 63 68 73 78 83 87 92 95 96 97 99 101 104 107 107 106 104 102 100 98 97 96 95 95 93 89 89 90 90 87 83 81 80
19 19 20 20 19 19 19 19 19 19 19 20 19 19 19 19 19 20 21 23 26 30 34 37 39 42 44 47 51 54 59 64 69 75 80 85 89 94 97 98 100 101 104 107 109 110 110 109 108 106 104 102 100 100 99 97 95 94 93 91 88 85 84
20 21 21 21 21 21 21 21 21 21 22 22 22 22 22 22 23 23 23 24 25 27 30 34 37 41 44 46 49 52 56 60 65 70 76 81 87 92 96 98 101 102 104 106 109 111 112 112 111 110 109 108 106 104 102 102 101 99 98 96 94 91 88
21 21 21 21 21 22 22 22 22 23 24 24 25 25 25 26 26 27 27 28 28 29 30 32 34 37 41 44 47 50 53 57 61 66 71 77 83 88 94 97 100 102 104 106 108 111 113 113 113 113 112 111 110 109 106 105 104 103 102 101 99 97 94
20 20 21 21 21 21 22 23 23 24 25 26 27 27 28 28 29 30 31 32 32 33 34 34 35 36 38 41 44 47 51 54 57 61 66 71 76 82 88 94 98 101 103 105 107 110 113 115 115 115 114 114 113 112 111 110 108 107 106 105 103 101 99
19 19 20 20 21 22 23 23 24 25 26 27 28 29 30 31 32 33 34 35 36 37 38 38 39 39 40 41 42 44 47 50 54 58 62 65 70 75 81 87 93 98 102 105 107 109 112 115 117 117 116 116 115 114 114 113 113 112 111 110 108 106 104
18 19 20 21 22 23 24 25 26 27 28 29 30 31 32 33 34 35 35 36 38 39 40 41 42 43 43 44 44 45 46 48 51 54 57 61 65 69 74 79 85 92 97 102 106 108 111 114 117 118 118 118 118 117 116 116 115 115 115 115 113 111 108
19 20 21 22 23 24 25 27 28 29 29 30 31 31 32 32 33 34 34 35 36 38 39 40 42 44 45 45 46 47 48 49 50 52 54 57 60 64 69 73 78 84 90 96 101 106 109 113 116 118 120 121 121 120 119 118 117 117 117 117 117 117 114
20 21 22 23 24 25 25 26 26 27 27 27 27 28 28 29 29 30 31 32 34 35 36 38 39 41 43 45 46 47 49 50 51 51 52 54 57 60 64 68 73 77 82 88 94 99 105 109 113 116 119 122 124 124 124 123 121 120 119 118 118 119 119
20 21 21 22 22 22 21 21 21 22 22 22 23 24 24 25 25 26 27 28 30 31 33 35 36 38 40 42 44 46 47 49 50 51 52 54 55 57 60 63 67 72 76 81 86 91 97 102 108 112 116 119 122 125 127 128 127 125 123 121 121 120 121

ECMWFFLT1_250_spd_210.txt.gz
Wind_Speed
89 88 87 87 88 88 88 87 86 84 83 82 81 80 78 78 78 79 79 78 77 75 72 71 69 66 64 64 64 64 63 63 63 63 63 61 56 54 55 55 53 51 48 47 45 43 41 39 38 37 36 35 34 35 35 33 31 32 33 33 32 28 27
93 92 92 92 92 92 92 91 90 89 88 87 86 85 84 82 81 81 81 82 81 79 77 75 73 71 68 67 67 67 67 65 65 65 65 64 61 59 59 59 57 54 51 49 48 46 44 42 41 40 39 37 35 35 34 34 34 33 33 34 34 30 28
95 95 96 96 96 96 96 96 95 94 93 92 91 90 89 88 86 85 84 84 84 83 83 82 80 78 76 74 72 72 72 69 67 67 67 67 65 64 64 61 59 57 55 53 51 49 47 45 44 43 41 39 38 36 34 34 35 35 35 35 35 34 31
98 98 98 98 99 99 99 99 98 98 97 96 96 96 95 94 92 90 89 88 88 87 86 86 86 85 84 83 81 79 79 78 74 70 69 68 67 68 68 65 61 59 58 57 53 51 49 47 46 46 44 41 39 38 37 35 35 36 36 36 36 37 35
100 101 101 101 101 101 101 101 101 101 100 100 100 99 99 98 97 95 94 93 93 91 90 88 88 88 88 88 87 85 83 82 77 72 71 71 70 70 70 69 66 64 62 60 56 53 51 49 48 48 46 42 40 40 38 36 36 37 37 37 37 38 39
100 101 101 101 102 103 102 102 102 102 102 103 103 102 101 101 100 99 98 97 97 96 94 92 91 90 90 89 89 88 87 85 83 79 77 76 76 76 74 72 71 70 67 63 59 57 55 53 50 50 49 46 43 42 40 38 37 38 38 38 37 38 41
96 97 97 98 98 99 99 100 101 101 101 102 102 102 102 102 102 101 101 100 100 99 98 97 95 94 93 92 91 90 89 89 90 89 87 84 82 83 81 77 75 74 71 67 63 61 59 56 54 52 51 50 47 45 43 40 38 39 39 38 38 39 41
87 88 88 89 89 90 90 91 92 93 94 94 95 96 97 98 99 99 100 99 99 99 99 98 98 96 95 94 93 91 90 90 90 90 90 89 88 87 87 83 80 78 75 72 69 67 65 62 59 56 53 53 52 50 47 44 41 41 39 37 38 40 40
75 76 76 77 77 78 78 78 78 79 80 81 82 83 85 86 88 89 90 91 91 91 91 91 92 92 92 93 93 92 91 90 89 89 89 90 90 90 90 89 85 82 79 76 74 73 70 68 67 64 59 57 57 55 53 49 45 44 41 37 38 40 40
65 66 67 67 67 67 67 66 66 66 66 68 68 69 71 72 74 75 77 78 78 78 79 80 81 82 83 84 86 87 89 89 88 87 87 88 89 91 92 92 90 86 83 80 78 77 75 73 72 70 66 63 61 59 57 54 50 48 45 40 39 40 42
59 59 60 60 59 59 58 57 56 56 56 57 57 57 58 60 62 63 65 66 67 68 68 69 70 71 72 73 75 77 80 83 84 84 85 86 87 89 91 92 91 89 86 83 81 80 79 78 76 74 71 68 65 62 61 58 55 53 50 44 41 42 44
52 53 53 53 53 52 51 50 49 48 48 48 48 48 50 52 53 55 56 57 58 59 60 60 60 61 61 62 64 67 70 73 76 79 81 83 85 86 87 89 90 89 88 86 83 82 81 81 81 79 76 72 68 66 65 63 60 58 55 48 45 46 46
45 45 46 46 46 45 44 43 42 42 42 42 42 43 44 46 47 49 50 50 51 52 52 52 52 52 53 53 55 57 60 64 67 71 75 78 80 82 83 85 87 88 88 87 85 84 83 82 82 81 80 76 73 71 68 66 63 61 58 54 50 49 48
37 38 38 39 39 39 39 38 38 37 37 38 39 39 40 41 43 44 44 45 45 45 46 46 46 46 46 47 48 50 52 55 59 63 68 72 75 77 79 81 83 85 86 86 86 85 84 83 82 81 81 79 77 74 71 67 65 63 62 59 56 53 52
30 30 31 32 33 34 34 34 34 34 35 36 36 36 37 37 38 39 40 41 41 41 41 41 41 41 42 43 44 45 47 49 53 57 61 66 70 73 76 78 80 82 84 84 84 84 84 84 83 81 81 81 80 77 73 69 66 65 64 63 61 58 55
23 24 25 26 28 30 30 30 30 31 32 32 33 33 33 33 34 34 35 36 37 37 37 37 37 38 38 39 41 42 43 45 48 52 56 61 65 69 72 74 77 79 81 81 81 82 83 83 82 81 82 82 82 81 78 73 70 69 68 66 65 63 60
18 20 22 23 24 26 27 27 27 28 29 29 29 29 29 30 30 31 32 33 33 34 34 34 34 35 35 36 37 39 41 42 45 48 52 56 61 65 68 71 73 75 77 78 78 79 80 81 80 81 82 83 83 83 82 79 75 72 71 70 68 66 64
15 17 19 20 21 23 24 25 25 26 27 27 27 27 28 29 29 30 30 30 31 31 31 32 32 33 34 34 35 37 39 41 43 45 48 52 57 61 65 68 71 73 74 76 76 77 78 79 79 80 82 83 83 83 83 82 80 76 74 72 71 69 67
13 15 16 17 18 19 21 22 23 24 25 25 26 26 27 28 28 29 30 30 30 29 29 29 30 31 31 32 34 36 38 40 42 43 46 49 53 58 62 66 69 71 73 74 75 76 78 79 79 80 82 82 83 83 83 82 81 79 75 74 73 71 69
12 13 14 15 16 17 18 19 20 20 21 23 24 26 26 26 27 28 29 30 30 29 28 27 28 29 29 30 33 36 38 40 42 43 45 48 52 56 60 64 67 70 72 73 74 75 77 78 79 80 81 82 83 83 83 82 81 80 77 76 75 73 71
10 11 13 14 14 15 17 18 19 18 19 21 23 25 24 25 26 27 28 29 29 29 28 27 27 27 27 29 31 34 37 40 42 43 45 47 50 54 57 62 66 69 71 72 74 75 75 76 78 79 81 83 84 84 84 83 82 81 79 78 77 76 74
10 10 10 11 12 13 15 17 17 17 17 18 21 22 22 22 23 24 25 26 27 28 28 27 27 26 27 28 29 32 36 39 42 44 45 46 48 51 54 59 63 67 70 72 75 76 77 77 77 78 80 82 84 85 85 85 84 82 81 80 79 78 77
11 11 10 10 10 11 12 14 14 14 13 14 16 18 19 19 20 21 23 24 24 25 26 26 27 27 27 27 28 30 33 37 42 44 46 47 48 50 52 55 59 64 68 71 73 76 78 79 80 80 80 82 84 85 86 86 85 85 85 84 83 81 79
14 13 12 12 11 11 11 12 13 13 12 12 14 15 16 17 18 20 21 22 22 23 23 24 25 27 27 27 28 29 31 35 40 44 46 48 49 51 52 53 55 59 64 68 71 74 76 78 80 82 83 84 85 86 87 88 87 86 87 87 86 86 84
17 16 15 15 14 13 13 13 14 14 13 13 14 15 16 17 18 19 20 21 22 22 22 21 22 24 26 28 28 29 30 33 37 41 45 48 50 51 53 54 55 57 59 63 67 71 74 76 77 79 81 84 86 88 89 90 89 89 88 88 88 89 89
18 18 18 18 17 16 15 15 16 16 16 15 16 17 18 18 19 19 20 20 20 21 21 21 21 21 22 24 27 29 30 31 33 36 40 45 48 51 53 55 57 59 60 61 64 67 71 74 77 78 79 82 84 87 89 90 91 91 91 91 91 90 91
18 18 19 19 19 19 18 18 19 19 19 19 19 20 20 20 20 20 21 20 20 20 19 20 20 19 19 20 22 25 27 29 31 34 36 39 42 46 50 53 57 59 61 62 64 65 67 71 74 77 79 81 84 86 88 89 90 91 91 92 92 92 92
17 18 19 20 20 20 20 20 20 21 21 21 22 22 22 23 23 23 22 22 22 21 21 20 20 20 20 19 20 21 23 26 28 31 34 36 38 41 44 47 51 54 57 60 63 65 68 70 72 74 77 80 84 87 89 90 91 92 92 93 93 94 94
16 17 18 19 20 20 20 20 20 21 21 21 22 22 23 23 23 23 23 23 23 23 23 23 23 23 23 23 22 22 23 24 26 28 31 34 36 39 41 43 45 48 51 54 58 62 65 68 70 72 74 77 80 84 88 91 93 94 94 95 96 96 96
14 15 16 17 17 17 18 18 18 19 19 19 20 20 21 21 22 22 23 23 24 24 24 25 25 25 26 26 26 26 27 27 28 29 30 32 34 37 39 41 43 45 47 50 54 57 60 64 67 69 72 74 76 79 84 89 94 96 97 98 99 99 99
13 13 13 14 14 14 14 14 14 15 16 17 17 18 19 20 21 22 23 24 24 25 25 25 25 26 27 27 28 29 30 31 31 32 33 34 35 36 38 40 42 44 46 48 51 53 56 59 61 64 68 70 73 76 79 83 89 94 98 100 101 102 102
11 11 11 12 12 12 13 13 13 14 15 16 17 18 19 20 20 21 21 21 21 22 22 22 23 23 24 25 26 28 29 30 32 33 34 35 36 37 38 40 41 43 45 47 49 51 53 56 58 60 63 66 68 72 75 78 82 86 92 97 100 102 103
9 10 10 11 11 12 12 12 13 13 14 15 15 15 15 16 17 17 18 17 17 17 18 18 19 19 20 22 23 24 26 28 29 31 32 33 35 36 37 39 40 42 44 46 48 50 52 54 56 58 60 62 64 67 70 74 77 80 84 89 94 98 101
7 7 7 8 8 8 8 9 9 9 10 10 10 10 11 12 13 14 15 15 15 15 15 16 17 17 18 19 21 22 24 25 27 29 30 31 33 34 35 36 38 39 41 43 45 47 49 51 53 55 57 59 61 64 66 69 72 75 78 82 86 91 95
4 4 4 4 4 4 5 6 6 7 8 9 9 9 9 9 10 11 12 14 14 15 16 17 18 18 19 20 20 21 22 23 24 26 27 29 30 32 33 34 36 37 39 40 42 44 46 48 50 52 55 57 59 61 63 65 68 70 73 77 80 84 88
6 5 5 5 6 7 7 8 8 9 9 10 10 10 10 10 11 12 13 15 16 17 18 18 19 20 20 21 21 22 22 22 23 23 24 26 27 29 30 31 33 34 36 38 39 41 43 44 46 48 51 53 55 58 60 62 65 67 69 72 75 78 82
11 11 11 11 11 11 10 10 10 10 10 11 12 13 13 13 14 14 15 16 17 18 18 19 20 20 21 22 22 23 23 24 24 24 24 24 25 27 28 29 30 31 33 34 36 38 39 41 43 45 47 49 51 53 56 59 61 64 66 69 71 74 76

ECMWFFLT1_250_spd_216.txt.gz
Wind_Speed
77 77 77 76 76 76 76 75 75 74 74 74 74 73 73 72 72 71 69 68 68 68 68 68 69 69 69 69 70 70 70 70 71 72 73 72 71 70 69 68 67 67 65 63 61 60 58 57 55 53 52 50 48 48 46 43 39 37 36 36 36 36 34
81 82 82 82 81 81 80 80 79 78 78 77 77 76 75 75 75 75 74 72 72 71 71 70 71 70 71 71 71 72 72 72 73 74 75 75 75 74 73 72 70 68 66 65 63 61 59 58 58 55 53 51 51 51 49 46 44 41 39 37 36 36 36
84 85 86 87 87 87 86 85 84 84 84 83 82 81 80 79 78 78 78 77 77 76 75 75 75 75 75 75 74 75 75 76 77 77 77 77 77 77 76 76 75 72 70 68 66 64 62 61 60 59 56 52 53 54 52 49 47 45 43 41 39 37 38
84 86 88 89 90 91 91 91 90 90 89 89 89 88 87 85 85 84 83 82 82 81 81 81 81 81 81 80 80 80 80 81 82 82 81 81 81 80 80 79 78 77 75 72 70 68 66 65 64 63 61 56 55 56 55 53 51 49 47 45 42 40 40
84 85 87 88 89 91 92 93 94 94 94 94 94 93 92 91 91 90 89 88 88 87 87 87 87 87 86 86 86 86 86 87 87 87 87 86 86 85 84 83 82 81 79 78 75 72 70 69 67 67 66 61 59 59 58 56 55 53 51 49 47 44 43
79 80 82 84 86 87 89 91 92 93 94 95 95 95 95 95 94 94 94 93 93 92 92 92 91 91 91 90 90 90 90 90 91 91 91 91 90 90 89 88 86 85 83 82 80 78 75 73 71 71 69 66 65 65 62 60 58 57 55 52 51 49 46
68 70 72 75 77 80 82 84 86 87 89 90 91 92 93 93 93 93 93 93 92 92 92 92 92 91 91 92 92 91 91 91 91 92 92 92 92 92 92 91 90 89 88 86 85 82 80 78 76 74 73 72 72 72 68 64 62 61 59 56 55 54 51
56 58 61 63 66 68 71 73 75 77 79 80 82 83 84 85 85 86 86 86 87 87 87 86 86 86 87 87 87 87 88 88 89 89 89 90 90 91 91 91 91 91 90 89 88 87 85 83 80 78 77 78 78 77 75 71 67 65 62 60 59 58 56
46 48 50 53 55 57 59 61 63 65 66 68 69 71 72 73 73 74 75 75 76 76 77 77 77 77 78 79 79 79 80 81 82 83 84 85 86 86 87 88 89 89 90 90 90 90 89 87 85 83 82 81 81 81 80 77 74 70 67 65 64 63 62
39 40 42 44 46 48 49 51 52 54 55 56 57 58 59 60 61 61 61 62 62 63 63 64 65 65 66 67 68 69 70 71 73 74 76 77 79 80 81 83 84 85 86 88 89 90 90 90 88 87 86 84 84 84 83 81 79 76 73 70 69 68 67
33 34 35 37 38 40 41 43 44 45 46 47 48 48 49 49 49 49 50 50 51 51 52 53 54 55 56 57 58 59 60 62 63 65 67 68 70 72 74 76 78 80 81 83 86 87 89 89 89 89 88 87 86 85 85 85 84 81 78 75 74 72 71
29 30 30 31 32 33 34 35 37 37 38 40 40 41 41 41 41 41 42 42 43 43 44 45 46 46 47 49 50 51 52 53 55 57 59 60 63 65 67 69 71 73 75 77 79 82 84 86 88 89 89 88 87 86 88 89 88 85 82 80 78 77 74
27 27 27 27 27 27 28 29 30 31 32 33 34 34 34 34 35 35 36 36 36 36 37 38 38 39 39 41 42 43 45 46 48 50 52 54 56 58 60 62 64 66 68 70 72 75 77 80 83 86 88 89 88 88 90 92 91 88 86 84 82 80 78
26 26 25 24 23 23 24 24 25 25 26 27 28 29 29 29 29 30 30 30 30 31 31 31 32 32 33 35 37 38 39 40 41 43 45 47 49 52 54 56 57 59 62 64 66 68 70 73 77 80 84 86 88 89 91 93 92 91 90 88 85 82 80
24 24 24 23 22 21 21 21 21 21 21 22 23 24 24 25 25 25 25 25 26 26 27 27 27 28 29 30 31 32 33 34 35 36 38 40 42 45 47 48 50 52 54 57 60 61 64 67 70 73 78 81 85 88 91 94 95 94 95 93 90 86 83
24 23 22 21 20 20 20 20 19 18 17 17 18 19 19 20 21 21 22 22 23 24 24 24 24 24 24 25 26 26 27 28 29 30 32 33 36 38 39 41 42 44 46 49 52 55 57 60 63 67 71 75 80 84 89 92 95 96 97 96 93 89 86
23 23 22 21 19 18 18 18 18 17 16 16 15 16 16 17 18 19 19 20 21 21 21 21 21 21 21 21 22 23 24 24 25 26 28 29 31 32 34 35 36 37 38 41 44 47 49 52 55 59 63 68 73 78 84 88 92 94 96 95 93 90 88
21 22 22 21 19 17 17 17 17 17 17 16 15 15 16 16 17 17 18 19 19 19 19 19 19 19 19 19 20 22 23 24 25 25 26 26 27 28 29 30 32 33 34 35 36 39 41 43 46 50 55 59 64 70 77 82 86 89 91 92 91 89 87
19 20 21 21 20 17 16 16 17 17 17 16 16 16 16 16 16 17 17 18 18 18 18 18 18 18 18 19 20 22 24 26 26 26 25 25 25 25 26 27 28 29 30 31 31 33 35 37 39 42 46 51 56 61 68 74 79 83 85 87 87 87 85
17 18 19 20 20 18 16 15 16 16 16 16 16 15 16 16 16 16 16 16 16 16 17 17 17 16 16 16 18 20 23 26 26 26 25 24 23 23 23 24 24 25 26 27 28 28 29 31 33 35 38 43 48 53 59 65 71 75 79 81 82 83 83
16 17 17 18 19 19 16 15 15 15 15 15 15 15 15 15 15 15 15 15 15 15 14 14 13 13 13 14 16 19 21 24 24 24 23 22 21 21 21 21 22 22 22 23 24 25 26 27 28 30 33 36 41 46 52 57 63 68 72 75 77 79 80
17 17 17 17 18 19 17 15 14 14 13 13 13 13 13 13 13 13 13 12 12 11 10 10 11 12 13 14 16 18 20 21 21 21 21 21 20 19 19 20 20 21 21 22 22 23 25 26 27 28 29 31 35 40 45 50 56 61 65 69 72 75 77
17 18 17 17 17 18 18 16 15 14 13 13 12 11 11 10 10 9 9 9 9 9 9 11 12 13 14 15 16 17 18 18 18 17 17 18 19 20 20 20 20 21 21 22 23 23 24 26 26 27 27 29 31 35 40 45 50 55 60 64 68 71 74
18 18 18 17 17 17 17 17 16 15 14 13 12 12 11 10 9 9 9 9 10 11 12 13 14 15 15 16 17 18 18 17 17 16 16 16 17 19 20 21 22 22 22 23 23 24 25 26 27 27 28 28 29 32 35 39 44 49 54 59 63 67 71
17 18 18 18 17 17 16 16 16 16 16 15 14 13 13 12 11 11 11 12 12 13 14 16 17 17 17 18 18 19 18 18 18 18 17 17 18 18 19 20 22 23 24 24 24 25 25 26 27 28 29 30 30 31 33 36 40 45 50 54 59 63 67
17 17 17 17 17 16 15 15 15 15 16 16 15 15 14 14 14 14 14 14 15 15 16 17 18 18 19 19 19 19 19 19 19 20 20 20 20 20 20 21 21 22 23 24 25 25 26 26 27 28 30 31 32 33 33 35 37 41 45 50 54 59 63
16 16 16 16 16 15 14 14 14 14 15 15 15 15 14 14 14 14 15 15 16 16 16 17 18 18 18 19 19 20 20 20 20 20 21 21 21 22 22 23 23 23 23 23 24 25 26 27 28 29 29 31 33 34 36 37 38 39 42 46 50 54 59
16 16 15 15 15 13 13 13 12 13 13 14 13 14 14 14 13 13 14 14 15 15 15 16 17 18 18 18 18 19 19 19 19 19 19 20 20 21 22 23 24 25 25 25 25 25 26 26 27 29 30 31 32 34 36 38 40 41 43 45 47 51 54
15 15 14 14 13 11 11 11 11 11 11 11 11 11 12 12 12 12 12 13 13 14 15 15 15 15 15 15 15 15 15 16 16 16 16 17 17 18 19 21 22 23 24 26 27 27 28 28 28 29 29 30 31 33 34 36 39 41 44 46 48 50 52
14 13 12 12 11 10 10 10 10 10 10 10 10 9 9 10 10 11 11 11 11 12 11 11 11 11 11 12 12 13 13 13 14 14 15 15 16 16 17 17 18 20 21 22 24 26 27 28 29 30 30 31 32 33 34 35 36 39 41 44 47 49 52
12 11 11 11 10 10 9 9 9 10 9 9 9 9 9 9 9 9 8 7 7 6 7 7 8 9 10 11 12 12 13 13 14 14 14 15 15 16 16 17 17 18 18 19 20 22 23 25 26 28 29 31 32 33 34 35 36 37 39 40 43 46 49
13 11 10 10 9 9 8 8 8 9 8 8 8 7 7 7 6 5 4 4 4 5 6 7 8 9 10 11 12 13 13 14 14 14 15 15 16 16 17 17 18 18 18 19 19 19 20 21 22 24 25 27 29 31 32 34 35 37 38 39 40 42 44
14 12 10 9 8 8 6 6 6 6 5 5 5 4 4 4 3 3 3 4 5 6 7 8 9 9 10 11 11 12 12 13 14 14 15 15 16 16 17 17 18 19 19 19 20 20 20 20 20 21 22 23 25 26 28 30 32 34 36 38 40 41 43
17 14 12 10 8 7 6 5 4 4 4 3 3 3 3 4 4 5 5 6 6 7 8 8 8 9 9 9 10 11 11 12 13 14 14 15 15 16 17 17 18 19 19 20 20 21 21 21 21 21 21 22 22 23 24 26 28 30 32 34 36 38 40
19 17 15 12 10 8 6 5 5 4 4 3 3 3 4 5 6 6 7 7 7 7 7 7 8 8 8 9 10 10 11 12 13 14 15 15 16 17 17 18 18 19 20 20 21 22 22 22 22 22 22 22 22 23 23 24 25 26 28 29 31 33 36
20 19 17 15 13 11 9 8 7 7 6 6 6 7 7 7 7 7 7 7 7 7 7 8 8 8 9 10 11 12 12 13 14 15 16 17 17 18 18 19 19 19 20 21 21 22 23 23 23 23 23 23 23 23 24 24 25 25 26 27 28 30 31
20 19 18 17 15 13 12 11 11 10 10 10 9 9 8 8 8 7 7 7 7 8 8 9 9 10 10 11 12 13 14 15 15 16 17 18 19 20 21 21 22 22 22 22 22 23 24 24 24 25 25 25 25 25 25 25 25 26 26 27 27 28 29

ECMWFFLT1_250_spd_222.txt.gz
Wind_Speed
58 60 62 64 66 67 69 70 70 71 70 70 69 68 68 67 67 67 67 67 67 67 67 67 66 66 66 66 66 66 66 65 64 63 63 62 61 61 61 62 63 63 63 63 63 63 63 62 61 59 58 58 57 56 53 52 50 49 48 46 45 44 43
56 58 60 62 64 66 67 69 70 72 73 73 74 74 74 73 73 72 72 71 70 70 69 69 68 68 68 69 69 69 69 69 68 67 66 66 65 65 65 65 66 66 66 66 66 66 67 67 66 64 62 61 60 59 58 56 55 54 52 51 49 47 45
57 58 59 61 62 64 66 67 68 70 71 72 73 75 75 76 77 77 77 76 76 75 74 74 73 73 72 72 72 72 72 72 72 71 70 70 70 70 69 70 70 70 70 69 69 69 69 69 70 69 67 65 63 62 61 61 60 59 57 56 54 51 49
58 59 60 61 63 64 66 67 68 69 70 71 72 73 74 75 76 77 78 78 78 78 77 77 77 77 77 77 76 76 76 76 76 75 75 75 74 74 74 74 74 74 73 73 73 73 72 72 72 72 71 70 69 66 63 63 63 63 62 60 58 56 54
55 57 58 59 61 62 64 65 67 69 70 71 72 73 74 75 76 77 78 79 79 79 79 79 79 79 79 79 79 79 79 80 80 80 79 79 79 78 78 79 78 78 77 77 77 76 76 76 75 75 74 74 74 71 68 67 66 65 65 63 62 61 60
50 51 52 54 55 56 58 59 61 63 65 67 69 71 73 74 76 77 78 80 80 81 81 81 82 82 82 82 82 82 82 82 82 82 82 82 82 82 82 82 82 82 81 81 80 80 80 79 79 79 78 77 76 75 74 73 70 68 68 68 67 65 64
45 46 47 48 50 51 52 52 53 54 55 57 59 62 65 68 71 74 76 78 80 81 82 83 84 84 84 84 84 84 84 84 84 84 83 83 84 84 84 85 84 84 84 84 84 83 83 83 83 82 82 81 79 78 77 77 76 75 73 73 71 68 68
43 44 44 45 46 47 48 49 49 50 50 51 52 54 56 59 62 65 68 71 74 77 79 81 83 84 85 85 85 85 85 85 85 85 85 84 84 85 85 85 85 85 86 86 86 86 86 86 86 86 85 84 82 81 80 79 80 80 79 78 76 74 75
43 43 44 45 46 46 46 47 47 47 48 48 49 50 51 53 55 57 60 63 66 70 74 77 79 81 83 84 85 85 85 86 86 86 85 85 85 85 85 85 85 86 86 86 87 87 88 88 88 88 88 87 85 83 82 82 83 83 83 83 81 78 78
40 41 42 43 44 44 43 44 44 45 45 45 46 48 49 50 51 52 54 56 59 62 66 69 73 75 78 80 81 82 83 84 85 85 85 85 85 85 85 85 86 86 86 87 87 88 89 89 90 90 90 89 88 86 84 84 86 87 86 86 85 83 81
33 34 36 37 39 39 39 40 41 42 42 41 42 42 44 45 47 48 49 51 53 56 58 62 64 67 70 73 74 76 77 79 80 80 81 81 82 82 82 83 83 84 85 85 86 86 87 88 89 89 89 89 89 88 86 85 87 88 88 87 87 88 87
29 30 31 32 34 34 34 35 37 38 37 37 37 38 38 40 41 43 45 47 49 51 53 55 57 59 61 63 65 67 68 70 71 72 73 74 74 75 76 77 77 78 79 80 81 82 83 84 85 85 86 86 87 87 86 84 83 83 85 86 86 87 87
29 30 30 30 31 31 30 30 32 34 33 33 34 34 35 36 37 39 40 42 44 46 47 49 51 52 53 55 56 57 59 60 61 62 63 64 65 66 66 67 68 69 70 71 72 74 75 76 77 78 79 80 81 81 82 80 76 76 78 80 80 82 84
29 30 30 30 30 30 28 26 28 30 30 30 31 31 32 33 33 35 35 36 37 39 40 42 43 44 45 47 48 49 50 51 52 54 54 55 55 56 57 57 58 59 61 62 63 64 66 67 68 69 70 71 72 73 74 74 72 71 72 72 72 75 77
29 30 30 30 30 29 28 25 25 26 27 27 27 27 28 28 29 29 29 29 29 31 32 33 34 35 37 39 41 42 44 45 45 46 46 46 47 47 48 49 50 52 53 55 56 57 58 59 60 61 62 62 63 65 66 66 67 66 66 66 66 67 68
28 29 29 29 29 29 27 24 22 22 23 24 24 23 24 24 25 24 23 22 22 23 24 25 25 26 28 31 34 36 37 38 38 39 39 39 40 41 42 44 45 47 48 49 50 51 52 53 53 54 55 55 56 58 59 60 61 61 60 60 60 61 61
27 28 28 28 28 28 27 24 21 20 20 21 21 20 20 21 21 20 18 17 17 17 18 18 19 20 23 25 27 29 30 31 32 32 33 35 36 37 39 40 41 42 43 44 45 46 47 47 48 48 49 50 51 52 53 55 56 56 54 54 54 54 55
26 27 27 27 27 26 25 24 21 19 19 19 19 18 18 17 17 16 15 14 14 14 14 15 16 17 19 21 23 24 25 27 28 30 31 33 34 35 36 36 37 37 38 39 40 41 42 42 43 44 44 45 46 47 48 49 51 51 49 48 47 47 48
25 26 26 26 26 25 23 22 21 19 18 18 17 16 16 15 13 13 12 12 12 12 13 14 15 16 18 19 21 22 24 26 28 29 30 31 31 32 32 32 32 33 34 36 37 38 39 39 40 40 41 42 42 43 43 44 46 46 44 43 42 42 43
24 25 25 25 25 23 22 21 20 19 19 18 16 15 15 14 11 10 10 10 10 11 12 14 15 16 18 19 21 22 24 25 26 27 27 27 28 28 28 28 29 30 30 32 33 35 36 36 37 37 38 38 39 38 39 39 40 40 40 39 38 38 38
23 23 24 24 23 21 20 19 18 19 19 18 17 15 14 13 11 9 8 8 9 11 12 13 15 16 18 19 20 21 23 23 23 24 24 24 24 24 25 25 25 25 26 26 28 29 30 31 32 33 34 34 34 34 34 34 34 35 36 36 35 35 35
23 22 22 22 21 19 17 16 16 17 18 18 17 15 14 13 12 9 8 7 8 9 11 12 14 15 16 17 18 19 19 19 20 20 20 21 21 22 23 23 23 23 24 25 25 25 26 27 28 30 30 31 31 31 31 31 31 32 32 33 33 32 33
22 21 21 21 20 18 16 14 14 16 17 18 17 16 14 14 13 11 9 8 8 9 10 11 11 12 13 14 14 15 15 16 17 18 19 20 21 22 23 24 24 25 26 26 25 24 24 24 25 27 27 28 28 29 29 29 29 29 29 30 31 31 30
23 20 19 19 18 16 14 13 13 14 15 17 17 16 15 14 14 13 11 10 10 11 11 11 11 12 12 12 13 14 15 16 17 18 20 21 22 23 25 25 26 27 27 26 25 24 23 23 23 23 24 24 25 26 26 26 26 26 26 27 28 28 29
23 21 19 18 17 16 14 13 13 14 14 16 16 16 16 15 15 14 13 13 13 13 13 13 13 13 14 14 15 16 17 18 19 20 21 22 23 23 23 24 24 23 23 22 22 21 21 21 21 21 22 22 22 22 23 23 23 23 24 24 25 26 27
24 21 19 18 17 16 14 13 13 13 14 15 15 16 16 16 15 15 14 15 15 15 14 14 14 15 15 16 16 16 17 18 18 19 19 19 18 18 17 17 17 17 16 17 17 17 17 17 18 19 19 20 20 21 21 22 22 23 23 23 23 24 24
25 22 20 18 17 16 15 14 13 13 13 13 14 14 15 15 15 14 14 14 15 15 15 14 14 14 15 15 15 15 15 15 14 14 13 13 12 12 12 12 13 13 13 13 14 14 15 15 16 16 17 17 18 18 19 20 21 22 23 23 23 23 23
25 23 21 19 17 16 15 14 13 12 12 12 12 12 12 12 12 12 12 12 12 12 12 12 12 12 12 12 11 10 10 9 9 9 9 9 9 9 10 10 10 11 11 11 11 12 12 12 12 13 13 14 14 15 16 17 18 19 21 22 23 23 24
25 24 23 21 18 17 15 15 14 12 12 11 11 10 10 9 9 9 8 8 9 9 9 10 9 9 8 7 7 6 6 6 6 6 6 6 7 7 8 9 9 10 10 10 10 10 10 10 10 11 11 12 12 12 13 13 14 15 16 18 19 20 22
24 24 24 22 20 18 16 14 13 12 11 11 10 9 9 8 7 7 6 6 7 7 7 6 5 5 4 4 5 4 4 4 3 4 5 6 7 8 9 10 10 11 11 11 12 12 12 12 12 13 13 13 13 13 13 13 13 14 14 15 16 17 18
22 23 23 23 21 19 17 15 13 12 11 10 9 9 7 6 5 4 4 4 4 3 3 3 3 3 3 3 2 1 1 3 4 5 6 7 8 9 10 11 12 12 13 14 14 15 16 16 16 17 17 17 17 17 17 17 17 16 16 16 16 16 16
20 21 22 22 21 20 19 17 15 13 11 10 8 7 6 4 3 2 1 1 1 2 2 2 2 2 1 1 2 3 4 5 6 7 7 8 9 10 10 11 12 13 14 15 16 17 18 18 19 19 19 20 20 20 20 20 20 20 19 19 19 18 18
19 19 20 21 21 20 20 19 17 15 13 11 9 7 5 4 2 2 2 2 1 1 1 1 1 2 2 3 4 5 5 6 7 7 8 8 9 10 11 12 13 14 16 17 18 19 19 20 20 20 21 21 21 21 21 21 21 22 22 22 22 22 22
19 19 19 19 19 20 20 19 19 17 15 13 11 9 7 6 5 5 4 3 1 1 1 2 2 4 5 5 5 5 6 6 7 8 8 9 10 11 12 13 15 16 18 19 20 21 21 22 22 22 22 22 22 22 23 23 23 23 23 23 23 24 24
18 18 18 18 18 18 18 19 19 18 17 15 14 12 11 10 8 6 5 3 2 2 2 3 4 5 5 5 5 5 6 7 8 9 9 10 10 12 13 14 16 17 18 20 21 22 22 23 23 23 24 24 24 24 23 23 23 23 23 23 23 23 23
17 18 18 18 18 18 18 17 17 18 18 17 16 16 14 12 10 8 6 5 4 4 4 4 5 5 5 5 5 6 6 7 8 9 10 11 12 13 14 15 17 18 19 20 21 22 23 24 24 24 24 24 25 25 25 25 24 24 24 24 24 24 23
18 18 18 18 18 18 18 17 17 17 17 18 18 17 16 14 12 10 9 8 7 6 6 6 6 5 5 5 5 6 7 7 8 9 10 12 13 14 15 17 18 19 20 21 22 23 24 25 26 26 26 26 26 26 26 27 26 26 25 24 24 24 24

ECMWFFLT1_250_spd_228.txt.gz
Wind_Speed
51 51 52 53 54 54 56 57 59 60 61 62 63 65 67 68 70 70 70 70 69 68 68 68 68 68 68 68 68 68 68 68 67 66 66 65 65 64 64 63 63 62 62 63 63 64 64 64 64 63 63 64 64 64 64 64 63 64 64 63 63 62 62
55 55 54 54 55 56 57 58 59 60 60 61 62 63 65 67 68 70 72 72 73 73 72 72 71 71 70 70 70 69 69 69 68 68 67 67 66 65 65 64 64 64 64 64 64 64 64 65 66 65 65 65 65 65 65 64 64 65 64 63 64 64 64
57 57 58 58 59 60 61 61 61 62 62 63 63 64 64 65 67 68 70 71 72 73 74 75 75 75 74 74 73 73 72 72 71 71 71 70 69 68 67 66 65 65 65 64 65 65 65 66 67 67 66 65 65 65 65 65 65 66 65 64 65 64 64
59 60 60 61 62 63 63 63 64 64 65 65 65 65 65 66 66 67 68 69 69 70 71 73 74 75 76 77 77 77 77 76 76 75 75 74 73 72 71 70 69 69 67 66 66 66 66 67 68 67 65 65 65 65 65 65 65 66 66 66 66 65 64
60 60 60 61 61 62 63 64 64 65 66 66 67 67 67 67 66 67 68 68 68 68 68 68 69 71 72 74 76 78 79 79 80 79 79 78 78 77 77 76 75 74 73 72 71 70 70 70 70 69 67 67 66 66 66 66 65 66 67 67 66 66 65
58 59 60 60 61 62 62 63 64 65 66 67 67 68 67 68 68 68 69 70 70 70 70 69 69 69 70 71 72 74 75 77 78 79 80 80 80 80 81 80 80 79 78 78 76 75 75 75 75 74 73 72 71 70 71 70 69 69 70 69 67 66 66
57 57 57 58 59 59 60 61 62 63 64 65 66 66 67 68 68 69 71 72 73 73 73 72 72 72 72 72 72 73 73 74 74 75 76 77 78 79 80 81 81 82 82 82 81 81 81 80 80 80 79 78 77 76 76 75 73 72 73 72 70 69 69
50 50 50 50 51 52 52 53 54 56 57 59 60 61 62 63 64 65 67 69 71 72 71 71 71 71 72 73 73 74 74 75 75 75 75 75 75 76 77 78 79 80 81 81 81 82 82 82 81 81 81 80 79 78 78 77 76 75 76 75 74 73 73
41 41 40 41 42 43 45 46 47 49 50 52 52 53 54 55 55 57 59 62 65 66 66 65 65 66 67 69 71 72 72 73 74 75 75 76 76 77 77 78 78 79 80 80 80 80 80 80 81 81 80 80 79 79 78 78 77 77 77 77 77 76 76
32 33 33 34 35 37 38 40 42 44 46 46 47 47 47 47 48 49 52 56 59 59 59 59 59 60 61 63 64 65 66 67 68 69 71 72 73 75 76 77 78 79 80 81 81 81 81 81 81 81 81 80 80 80 79 79 79 79 79 79 79 79 79
28 29 31 31 32 34 35 37 38 40 42 43 43 43 43 43 43 44 46 51 53 53 52 52 53 54 56 56 58 58 59 60 61 62 63 64 66 67 69 71 73 74 76 77 79 80 81 82 82 82 82 82 81 81 81 80 80 81 81 81 81 81 81
28 29 30 31 32 33 34 35 36 37 38 39 40 40 40 40 40 41 44 47 50 49 47 46 46 48 49 50 51 52 53 54 55 55 57 58 59 60 62 63 65 66 68 70 71 73 75 76 78 79 79 80 80 80 79 79 79 79 80 80 81 81 81
29 30 31 33 33 33 34 35 35 36 35 35 36 36 37 37 38 39 41 45 47 45 43 42 42 42 43 43 44 45 47 48 48 49 50 51 53 54 55 57 58 59 61 62 64 65 67 68 70 71 72 73 73 74 74 74 74 74 75 76 76 77 77
29 30 32 34 35 34 34 35 35 34 33 33 33 33 34 34 35 36 39 42 43 41 39 38 37 37 38 38 39 40 41 42 43 43 45 46 47 49 50 52 53 54 56 57 58 60 61 62 62 63 64 65 66 66 66 67 67 67 68 68 69 70 70
29 30 33 34 36 36 35 35 34 33 32 31 30 30 31 32 33 35 37 39 38 36 35 34 33 33 34 34 35 35 36 37 37 38 39 40 42 43 45 47 48 50 51 52 53 54 55 55 56 56 56 57 57 57 58 58 58 59 59 60 60 61 62
30 31 32 34 36 37 36 36 34 32 30 29 28 29 29 30 31 33 34 34 33 32 31 30 30 30 30 30 31 31 31 32 32 32 33 34 35 36 38 39 41 42 43 44 45 46 46 46 47 47 47 47 47 48 48 49 49 50 50 51 51 52 53
31 31 32 34 35 36 36 36 34 31 29 27 27 27 28 28 29 30 31 30 29 29 29 28 27 27 27 27 27 27 27 27 27 27 27 27 28 29 30 31 32 33 34 34 35 35 35 36 36 37 37 38 38 38 39 40 40 41 41 42 43 44 45
31 32 32 33 35 36 36 35 33 30 28 26 26 26 26 26 27 28 28 28 27 27 27 26 25 24 24 24 24 24 23 23 22 21 21 21 21 21 21 22 22 22 23 23 24 25 26 27 28 29 30 30 31 32 32 33 33 34 35 35 36 37 39
31 32 32 33 35 37 37 35 32 29 27 25 24 24 24 24 25 26 26 26 26 26 25 24 23 22 22 21 21 20 19 18 17 16 15 15 14 14 14 14 15 15 16 17 18 20 21 22 23 24 25 26 27 28 29 29 30 30 31 31 32 33 34
30 31 31 32 35 37 36 34 30 28 26 24 23 22 21 22 23 24 24 24 25 24 24 23 21 20 20 19 18 17 15 14 13 12 12 12 11 11 11 12 13 13 14 15 17 18 19 20 22 23 24 25 26 27 27 28 28 29 29 29 30 30 31
29 30 30 31 34 36 35 32 29 27 25 23 22 20 19 20 21 22 23 23 24 23 22 20 19 18 17 16 15 14 13 12 12 11 11 11 11 11 11 12 12 13 14 15 16 18 19 21 22 23 25 25 26 27 27 27 27 27 27 27 28 28 29
28 29 28 29 32 34 33 31 28 26 24 22 21 19 18 18 19 20 21 22 22 21 20 18 16 15 15 14 12 11 10 10 10 10 10 10 10 10 10 11 12 13 14 15 17 18 20 21 22 23 24 24 25 25 26 26 26 26 25 25 26 26 27
27 27 27 27 30 33 32 29 27 25 23 21 19 18 17 16 17 18 19 20 20 19 18 16 14 13 13 12 11 10 9 9 9 9 9 10 10 10 11 12 13 14 15 16 17 18 18 19 19 20 21 21 22 22 23 23 24 24 24 25 25 25 26
26 26 25 26 28 30 29 28 26 24 22 20 18 17 16 15 16 16 17 17 18 17 16 14 13 13 13 12 11 11 10 10 10 10 11 11 11 12 12 13 13 13 14 14 14 14 15 15 16 16 17 18 18 19 19 20 21 21 22 23 23 24 25
25 24 24 24 26 28 27 26 25 24 21 19 17 16 15 14 14 15 16 16 16 15 14 13 12 12 13 13 13 12 11 11 11 11 11 11 11 11 11 10 10 10 10 11 11 12 12 12 13 13 13 14 14 15 15 16 17 17 18 19 20 21 22
24 23 23 23 24 26 26 24 24 23 20 18 16 15 13 13 13 14 14 14 14 13 13 12 12 12 13 13 13 12 11 10 9 9 9 8 8 8 8 7 8 8 8 9 9 9 9 9 9 9 10 10 11 11 12 12 13 14 14 15 16 16 17
22 22 22 22 22 24 24 23 23 23 21 18 16 14 13 12 11 12 12 12 11 11 10 10 11 11 11 11 10 9 8 7 6 5 5 5 5 6 6 6 5 5 5 5 5 6 6 7 7 8 8 9 10 11 11 12 13 13 14 14 15 15 16
21 21 21 20 20 21 22 22 22 23 21 19 16 14 12 11 11 10 10 10 9 8 7 7 8 8 8 7 6 5 4 3 3 3 4 4 4 4 3 3 3 3 3 4 5 6 6 7 8 8 9 10 10 11 11 12 12 13 13 14 15 15 16
20 20 20 20 19 19 19 20 21 22 22 19 17 14 12 11 11 10 9 8 7 6 6 5 5 5 5 4 3 2 1 1 2 2 2 2 2 1 1 1 2 4 5 6 6 7 8 9 9 10 11 11 11 12 12 12 12 13 13 13 13 14 14
19 19 19 19 18 17 17 18 18 20 21 20 18 15 13 12 11 10 10 8 7 6 5 4 4 3 3 2 1 1 1 1 1 0 1 1 1 1 2 4 5 6 7 7 8 9 9 10 11 12 12 13 13 13 13 13 14 14 14 14 14 14 14
17 18 18 18 17 16 16 16 16 17 19 20 19 16 14 13 11 10 9 8 7 6 6 5 4 3 2 2 2 2 2 1 1 1 2 2 2 3 5 5 6 6 7 8 8 9 11 11 12 13 13 14 14 15 15 15 15 15 15 15 15 15 15
16 16 17 17 16 16 15 15 15 15 16 18 19 18 16 14 13 11 10 9 8 8 7 5 4 3 3 3 4 3 2 2 2 2 2 3 4 4 5 5 6 6 7 9 10 12 13 14 15 15 16 17 17 17 17 17 17 17 17 17 16 16 16
15 15 15 15 16 15 15 14 14 14 14 15 16 17 17 15 14 13 12 11 11 10 8 6 5 5 6 6 4 2 2 2 2 2 3 3 4 4 5 6 7 8 10 12 13 14 16 17 18 19 20 21 21 20 20 19 19 19 20 20 20 20 19
13 14 15 14 15 15 15 15 14 13 13 13 14 14 15 15 15 14 13 13 13 11 10 9 9 9 8 6 3 2 1 1 2 3 3 4 5 6 7 8 9 11 12 13 15 16 18 19 20 21 23 24 24 24 22 21 21 21 21 22 22 22 22
13 13 13 13 14 15 15 14 13 13 12 12 13 13 13 14 14 14 14 13 13 12 12 12 11 10 8 6 5 4 4 4 4 5 5 6 7 8 9 10 11 12 13 15 16 17 18 19 21 23 25 26 27 26 25 24 23 22 23 23 23 23 22
14 14 13 13 13 14 14 13 13 12 12 12 12 12 12 12 13 13 13 12 12 12 12 13 12 11 10 8 7 7 6 6 6 7 7 8 8 9 9 10 11 12 14 15 16 17 18 20 21 23 25 27 27 27 26 25 24 23 23 23 23 23 23
14 14 14 13 13 13 13 13 13 13 12 11 11 12 12 12 12 12 12 11 11 10 10 11 10 10 9 9 9 8 8 8 8 8 8 8 8 8 9 10 11 12 13 14 15 17 18 19 21 23 25 27 27 26 25 25 24 24 24 24 24 24 25

ECMWFFLT1_250_spd_234.txt.gz
Wind_Speed
44 45 47 48 50 52 54 55 57 58 59 59 59 60 60 61 61 62 63 64 65 66 67 67 68 69 69 70 71 71 72 73 74 74 73 74 74 75 76 75 74 74 74 74 73 71 70 69 69 70 69 69 68 68 68 69 69 68 67 66 66 66 65
44 45 47 48 49 51 52 53 54 56 57 58 59 60 61 62 63 64 65 66 68 69 70 70 71 71 71 71 71 72 72 72 73 73 74 74 74 75 76 76 76 76 76 75 75 74 72 71 71 71 71 71 70 70 69 70 71 71 71 70 69 69 69
43 44 45 47 48 50 51 52 53 54 55 56 57 59 60 62 63 64 66 67 68 70 71 71 72 73 73 73 73 73 73 73 72 73 73 73 74 74 75 75 76 76 77 77 77 76 75 74 73 73 73 73 73 72 71 71 72 73 73 73 73 73 73
43 44 46 47 49 50 51 52 53 54 55 56 57 59 61 62 63 65 66 67 68 69 70 72 72 73 74 74 74 74 74 74 74 73 73 73 74 73 73 74 75 76 77 78 77 77 77 76 75 75 75 75 75 74 74 73 73 72 73 73 74 75 76
46 47 49 50 51 53 54 55 55 56 57 58 59 61 62 64 65 66 67 68 69 70 71 72 73 73 74 74 75 75 75 75 75 75 75 75 75 75 75 75 76 77 77 77 77 77 77 77 77 76 77 77 78 77 77 76 75 74 74 73 73 73 75
49 50 52 53 54 55 56 56 56 57 58 58 59 60 62 63 64 65 66 67 67 68 69 70 70 71 72 72 73 73 73 73 73 74 74 75 75 75 75 75 76 76 76 77 77 78 78 78 77 77 77 78 78 79 80 80 79 78 77 76 75 75 75
51 52 52 53 53 54 54 54 53 52 53 54 54 54 55 57 58 59 59 60 61 62 63 64 65 65 66 67 67 66 66 67 67 69 70 71 71 72 73 73 74 74 74 75 76 77 78 78 77 77 77 77 78 79 80 82 82 81 81 81 80 79 79
51 51 51 50 50 49 48 47 45 44 45 45 46 46 46 48 50 51 52 53 54 56 57 59 59 60 61 61 61 60 60 60 61 62 63 64 65 66 67 68 69 70 71 72 74 75 76 76 76 76 76 76 76 77 78 80 81 82 82 82 82 82 82
49 48 47 45 44 42 40 38 37 38 39 40 40 40 41 43 45 47 48 49 51 53 54 55 56 56 57 58 57 56 56 56 56 56 57 58 58 59 60 61 62 63 64 66 68 70 71 72 73 74 74 75 75 76 76 77 78 79 80 80 81 82 82
45 44 42 41 40 38 36 34 35 36 38 39 40 40 40 42 45 46 46 48 49 51 52 53 53 54 54 54 53 52 52 52 52 51 51 52 52 53 54 55 55 56 58 59 61 62 64 65 67 69 71 72 73 74 75 75 76 77 78 79 80 80 80
41 41 40 40 39 38 36 35 36 37 39 40 41 41 42 44 45 46 46 47 48 49 49 50 51 51 50 49 48 48 47 47 46 46 46 46 47 48 49 50 51 52 53 54 55 56 57 59 60 62 64 66 68 69 71 72 74 75 77 78 79 80 80
40 39 39 39 39 39 38 37 37 39 40 42 43 43 44 45 46 46 46 46 47 47 47 48 48 47 46 44 43 43 42 41 41 41 41 42 43 45 45 46 47 48 49 50 51 52 52 53 55 56 58 59 61 63 64 65 67 68 70 71 73 75 76
37 37 38 39 40 40 39 38 39 40 41 43 44 44 45 45 46 45 45 45 46 45 45 45 44 42 41 39 38 38 38 38 38 38 39 39 40 41 42 42 43 44 44 45 46 47 48 48 49 50 52 53 55 57 58 59 60 61 62 63 65 67 68
33 35 37 40 41 41 40 39 39 41 42 43 44 44 44 45 45 45 44 44 44 43 42 41 40 38 36 35 35 35 35 35 35 35 35 36 36 37 37 38 39 39 40 40 41 42 43 43 44 45 46 48 49 51 53 54 55 56 58 59 60 61 63
34 36 39 40 40 41 41 39 39 40 41 42 42 42 42 44 44 43 43 42 41 40 39 37 35 34 32 32 32 32 31 31 31 31 32 32 32 33 33 34 35 35 36 37 37 38 39 40 40 41 42 43 45 46 48 49 51 52 54 55 56 57 59
36 39 41 39 37 38 39 39 38 39 40 39 38 39 40 42 42 42 41 40 39 38 36 34 32 30 29 29 28 28 27 27 27 28 28 28 29 29 30 30 31 32 32 33 34 35 36 37 37 38 39 40 42 43 44 45 47 48 50 51 52 53 54
38 40 40 36 33 34 36 36 36 37 37 35 35 36 38 40 40 40 39 38 37 35 33 31 29 28 26 25 24 24 23 23 24 25 26 26 26 26 26 27 27 28 29 30 31 32 32 33 34 35 36 37 38 39 40 41 42 43 44 45 46 46 46
38 39 37 33 30 31 33 33 33 33 32 31 33 35 37 38 39 38 37 36 35 32 30 28 27 25 23 22 21 21 21 21 22 23 23 24 24 23 23 23 23 24 24 25 25 26 27 28 28 29 30 31 32 33 34 34 35 35 35 36 37 38 38
38 38 34 30 28 28 29 29 29 28 28 29 31 34 36 37 37 37 36 34 32 29 27 26 24 22 20 19 19 19 19 19 20 20 20 21 21 21 21 20 20 19 19 19 20 20 21 21 22 23 23 24 25 25 26 27 27 27 27 28 29 31 32
37 35 30 26 24 25 26 25 25 25 26 28 30 32 35 36 35 36 35 32 29 27 25 24 22 20 19 18 18 17 17 17 17 17 17 17 18 18 18 18 17 17 16 16 16 16 16 17 17 17 18 18 18 19 20 21 21 22 23 23 24 26 27
35 31 26 23 21 22 22 22 22 23 25 26 28 31 33 34 34 35 33 30 27 25 23 21 19 18 18 17 16 16 15 15 15 14 14 14 14 14 14 14 14 13 13 13 12 12 12 13 13 13 14 14 15 15 16 17 18 19 20 20 21 23 24
31 28 25 22 20 20 20 20 21 22 23 25 27 30 31 32 33 33 31 27 25 23 21 20 18 17 17 17 15 15 14 13 13 13 13 13 13 12 11 11 10 10 10 9 9 9 9 10 10 11 11 12 12 12 13 14 15 15 16 17 18 19 19
28 26 25 23 20 19 19 20 20 21 22 23 26 28 30 31 32 31 29 26 24 22 20 18 17 16 17 16 15 14 13 12 12 12 12 12 12 12 11 10 9 8 8 7 7 7 8 8 8 8 8 8 8 9 9 10 10 11 12 13 13 14 15
27 25 24 23 21 19 19 19 19 20 21 22 24 26 28 29 30 30 27 24 23 21 19 17 16 15 16 15 14 13 12 12 12 12 12 12 12 11 10 9 8 7 6 6 5 5 5 5 5 5 5 6 6 6 7 8 9 10 10 11 12 13 13
26 24 23 22 21 19 19 19 19 19 20 20 22 24 26 28 29 28 25 23 21 20 18 16 14 14 14 13 12 11 11 11 11 11 11 11 11 9 7 6 4 4 3 2 2 2 2 3 4 5 5 6 6 7 7 8 9 10 10 11 12 13 14
25 23 21 21 20 20 20 19 19 19 19 20 21 22 24 26 27 26 23 21 20 18 17 15 13 12 11 10 9 9 10 10 10 9 9 8 6 5 3 2 1 1 1 2 3 4 5 5 5 5 5 5 6 6 7 8 9 10 11 12 12 13 14
24 22 20 18 18 19 19 19 19 19 19 19 19 20 22 24 25 24 22 20 18 17 15 13 11 10 8 7 7 7 7 6 6 5 4 3 2 2 2 3 3 4 5 6 6 5 4 4 4 4 5 5 5 6 7 8 9 10 11 12 13 14 14
21 21 19 16 16 18 19 19 19 19 19 19 18 18 20 22 23 23 21 19 17 15 13 11 9 7 6 5 4 3 2 2 2 1 2 3 4 4 5 6 7 7 6 5 5 4 4 4 5 5 5 6 6 7 8 9 10 11 12 12 13 14 15
19 18 17 15 14 15 17 18 19 19 19 19 18 17 18 20 21 21 20 18 16 14 12 9 7 5 4 3 1 1 1 1 1 3 4 5 5 6 7 7 7 6 5 5 4 4 5 5 6 7 7 8 8 8 9 10 10 11 12 13 13 14 14
16 16 15 14 12 13 14 15 18 18 19 19 17 16 16 18 19 19 18 17 15 13 10 8 6 4 3 1 1 3 3 3 4 5 6 7 7 7 7 6 6 5 5 5 5 6 7 8 9 9 10 10 10 10 10 11 11 12 13 13 14 14 14
14 14 13 13 12 12 12 13 15 17 17 17 17 15 14 15 16 17 16 15 14 13 10 7 5 4 2 2 3 5 5 5 6 7 8 8 7 6 6 6 6 6 6 6 7 7 8 10 10 11 12 12 12 12 12 12 12 13 13 13 14 14 15
12 12 12 12 12 12 11 11 12 13 14 15 15 13 12 12 13 14 14 14 13 12 10 8 6 4 3 4 5 6 6 6 8 8 8 7 6 6 6 6 7 7 7 7 7 8 8 9 10 12 12 13 13 13 13 13 13 13 13 13 13 14 15
11 11 11 10 11 11 11 10 10 11 12 12 12 11 11 11 11 12 12 12 12 11 10 9 7 5 5 5 6 7 7 8 9 8 8 7 7 7 7 7 7 7 7 7 6 7 7 8 10 11 12 13 14 14 14 13 12 12 13 13 14 14 15
10 10 10 10 10 11 11 11 10 10 10 10 10 10 10 10 11 10 10 10 10 10 10 9 8 7 6 6 7 8 9 10 10 9 8 8 8 8 7 7 6 6 5 5 5 6 7 8 9 11 12 13 14 14 14 14 13 12 13 13 14 15 16
9 9 9 9 10 10 11 11 10 10 10 10 10 10 9 9 10 10 9 9 9 8 8 8 8 8 7 7 7 8 9 10 9 9 8 7 7 6 5 5 4 4 5 5 5 6 7 7 9 10 11 12 13 13 14 14 14 14 14 14 14 15 16
8 8 8 8 9 9 10 10 10 10 11 11 11 10 9 8 8 9 9 8 8 8 7 6 6 6 7 6 6 7 7 8 8 7 6 6 5 4 3 3 4 4 5 5 6 6 7 8 9 9 10 11 12 13 14 14 15 15 15 15 15 15 16
8 8 7 8 9 9 10 10 9 9 10 11 11 11 10 9 8 8 8 8 8 8 8 7 5 4 4 4 4 4 4 5 5 4 4 3 2 1 2 3 4 5 6 7 7 8 9 9 10 10 11 11 12 12 13 14 14 15 16 16 16 16 16